sat.trackr.live / text

‹ back to catalog

STARLINK-11191 [DTC]

NORAD 60410 · 2024-141N

PAYLOAD ACTIVE UNKNOWN

§ Identity

Operator
Country
US
Launch date
2024-08-10
Launch site
AFETR
Launch vehicle
Mass (kg)
RCS (m²)

Purposes: comms

External: N2YO · Heavens-Above · Gunter

§ Orbital elements

Epoch: 2026-09-21T00:33:46.551744Z

Period
91.74 min
Inclination
53.1600°
Eccentricity
0.0000942
Mean motion
15.69711113 rev/d
Perigee alt
359.1 km
Apogee alt
360.4 km
Semi-major
6,737.9 km
B*
6.5653e-6
RAAN
203.2314°
Arg perigee
92.0507°
Mean anomaly
268.0619°
Rev number
12,242

§ Raw data

STARLINK-11191 [DTC]1 60410U 24141N   26264.02345546  .00000207  00000+0  65653-5 0  99902 60410  53.1600 203.2314 0000942  92.0507 268.0619 15.69711113122429

JSON: /api/v1/satellites/60410 · /tle

For live sub-satellite position, see the globe view (requires WebGL).

§ Visibility from observer

Set your observer location to see the next 7 days of passes ≥ 10°. The values pass through the URL so the page stays shareable.

No JS? Fill the form by hand. The geolocation button needs JavaScript.